[[{"header":{"parameterUnit":"m.s-1","parameterCategory":1,"la1":30.2991,"la2":30.254,"lo1":-89.0895,"lo2":-89.0444,"dy":0.0017,"dx":0.0017,"nx":28,"ny":28,"refTime":"2025-11-17T03:00:00:Z","depth":0,"parameterNumber":2,"parameterNumberName":"U-component_of_WINDS"},"data":[0,0,0,0,0,0,0,0,0,0,0,0,0,0,0,0,0,0,0,0,0,0,0,0,0,0,0,0,0,0,0,0,0,0,0,0,0,0,0,0,0,0,0,0,0,0,0,0,0,0,0,0,0,0,0,0,0,0,-1.5725,-1.5724,0,-1.5666,-1.5665,-1.5665,-1.5615,-1.5614,-1.5614,-1.5613,-1.5555,-1.5553,-1.5552,0,0,0,0,0,0,0,0,0,0,0,0,0,-1.5796,-1.5795,-1.5725,-1.5724,-1.5724,-1.5666,-1.5665,-1.5665,-1.5615,-1.5614,-1.5614,-1.5613,-1.5555,-1.5554,-1.5552,0,0,0,0,0,0,0,0,0,0,0,0,0,-1.5754,-1.5795,-1.5725,-1.5692,-1.5688,-1.5666,-1.5665,-1.5664,-1.5615,-1.5614,-1.5614,-1.5613,-1.5555,-1.5554,-1.5552,-1.5559,0,0,-1.5547,-1.5547,0,0,0,0,0,0,0,0,-1.5757,-1.5752,-1.5698,-1.5694,-1.569,-1.5647,-1.5669,-1.5629,-1.5615,-1.5643,-1.5613,-1.5612,-1.5586,-1.5582,-1.5573,-1.5556,-1.5554,-1.5547,-1.5546,-1.5546,-1.5545,0,0,0,0,0,0,0,-1.576,-1.5754,-1.5702,-1.5697,-1.5692,-1.5681,-1.5674,-1.5661,-1.562,-1.5641,-1.5637,-1.563,-1.5584,-1.5574,-1.5571,-1.5553,-1.5547,-1.5546,-1.5545,-1.5544,-1.5539,-1.5539,0,0,0,0,0,0,-1.5768,-1.5757,-1.5704,-1.57,-1.5722,-1.568,-1.5672,-1.5662,-1.562,-1.5613,-1.5631,-1.5628,-1.5577,-1.5573,-1.5569,-1.5573,-1.5546,-1.5544,-1.5543,-1.5538,-1.5539,-1.554,0,0,0,0,0,0,-1.5769,-1.5763,-1.5706,-1.5727,-1.5719,-1.568,-1.5668,-1.5661,-1.5651,-1.5613,-1.5605,-1.5629,-1.5577,-1.5571,-1.5562,-1.5571,-1.5543,-1.5542,-1.5537,-1.5538,-1.5539,-1.5583,0,0,0,0,0,0,-1.5771,-1.5764,-1.5766,-1.5728,-1.5718,-1.5699,-1.5669,-1.566,-1.5649,-1.5644,-1.5609,-1.5602,-1.5576,-1.5564,-1.556,-1.5568,-1.5541,-1.5536,-1.5538,-1.5539,-1.5581,-1.5586,-1.559,0,0,0,0,0,-1.5774,-1.5781,-1.5766,-1.576,-1.5719,-1.57,-1.5695,-1.5664,-1.565,-1.5651,-1.5626,-1.5603,-1.5571,-1.5564,-1.5558,-1.5566,-1.5535,-1.5537,-1.5539,-1.5578,-1.5585,-1.559,0,0,0,0,0,0,-1.5821,-1.5775,-1.5758,-1.5753,-1.5731,-1.5692,-1.5692,-1.5671,-1.5653,-1.565,-1.5612,-1.5605,-1.56,-1.5582,-1.5575,-1.557,-1.555,-1.5551,-1.5582,-1.5587,-1.5592,-1.5596,-1.5539,0,0,0,0,0,-1.5831,-1.5819,-1.5779,-1.5778,-1.5768,-1.5732,-1.5723,-1.5701,-1.5677,-1.5667,-1.5642,-1.562,-1.5604,-1.5595,-1.5579,-1.5578,-1.557,-1.5581,-1.5586,-1.559,-1.5591,-1.5589,-1.5593,-1.5546,-1.5546,-1.5546,0,0,-1.5851,-1.5824,-1.5819,-1.5787,-1.5767,-1.5756,-1.5725,-1.5714,-1.5705,-1.5666,-1.5655,-1.5636,-1.5609,-1.5604,-1.56,-1.5589,-1.5602,-1.5592,-1.5596,-1.5594,-1.5591,-1.5596,-1.56,-1.5547,-1.5547,-1.5547,0,0,-1.5881,-1.586,-1.5856,-1.5837,-1.5807,-1.5784,-1.5783,-1.5748,-1.5733,-1.5722,-1.5692,-1.5682,-1.5656,-1.5638,-1.5625,-1.565,-1.5628,-1.5646,-1.567,-1.5668,-1.5672,-1.5675,-1.5683,-1.5687,-1.5647,-1.5647,-1.5647,0,-1.5909,-1.589,-1.5857,-1.5848,-1.5835,-1.5799,-1.5795,-1.5778,-1.5746,-1.5738,-1.5726,-1.5693,-1.5672,-1.5662,-1.5668,-1.566,-1.5658,-1.5649,-1.5674,-1.5677,-1.5679,-1.5687,-1.569,-1.5649,-1.5649,-1.5649,-1.5649,0,-1.5926,-1.5914,-1.5915,-1.5883,-1.587,-1.5864,-1.5831,-1.5822,-1.5802,-1.578,-1.5769,-1.5743,-1.5721,-1.5717,-1.5697,-1.5705,-1.5698,-1.5681,-1.5659,-1.5687,-1.5693,-1.5696,-1.5653,-1.5652,-1.5651,-1.5651,0,0,-1.5983,-1.5934,-1.5935,-1.592,-1.5885,-1.5875,-1.5868,-1.5846,-1.5839,-1.5818,-1.581,-1.579,-1.5774,-1.576,-1.5738,-1.5737,-1.5757,-1.5719,-1.5718,-1.5726,-1.5763,-1.5776,-1.578,-1.5743,-1.5743,-1.5744,-1.5765,0,-1.6007,-1.5991,-1.5961,-1.5954,-1.5942,-1.5908,-1.5902,-1.588,-1.586,-1.5847,-1.5825,-1.581,-1.579,-1.5781,-1.5779,-1.5755,-1.5764,-1.5753,-1.5736,-1.5735,-1.5742,-1.5783,-1.5796,-1.5818,-1.5767,-1.5768,-1.5768,0,-1.6033,-1.6013,-1.6005,-1.5971,-1.5965,-1.5959,-1.5937,-1.5925,-1.59,-1.5885,-1.587,-1.5846,-1.5837,-1.5818,-1.5805,-1.5798,-1.5789,-1.5777,-1.5777,-1.5773,-1.5753,-1.5779,-1.5824,-1.5827,-1.5772,-1.5771,-1.5771,0,-1.6074,-1.6046,-1.6037,-1.6026,-1.5986,-1.5983,-1.5967,-1.5941,-1.5929,-1.591,-1.5903,-1.5883,-1.5872,-1.5858,-1.5829,-1.5818,-1.5819,-1.5798,-1.5807,-1.5807,-1.5807,-1.5807,-1.585,-1.5804,-1.5804,-1.5804,-1.5804,0,-1.6103,-1.61,-1.6055,-1.605,-1.6045,-1.6011,-1.6007,-1.5988,-1.5965,-1.5956,-1.5926,-1.5918,-1.5881,-1.5869,-1.5847,-1.5839,-1.5835,-1.5823,-1.5817,-1.5825,-1.5826,-1.5818,-1.5815,-1.5804,-1.5804,-1.5804,-1.5804,0,-1.6149,-1.6119,-1.6107,-1.607,-1.6061,-1.6059,-1.6028,-1.6022,-1.6,-1.5988,-1.5984,-1.595,-1.5934,-1.5904,-1.588,-1.5866,-1.5862,-1.5853,-1.587,-1.5867,-1.5876,-1.5876,-1.5914,-1.5917,-1.587,-1.5871,-1.5871,0,-1.6169,-1.6165,-1.6128,-1.6119,-1.6103,-1.609,-1.6078,-1.6046,-1.6035,-1.6006,-1.6003,-1.5985,-1.5969,-1.5945,-1.5918,-1.59,-1.5889,-1.5904,-1.5886,-1.5894,-1.5888,-1.5888,-1.5888,-1.5908,-1.5908,-1.5909,-1.5909,0,-1.6207,-1.6193,-1.6177,-1.6155,-1.6142,-1.6124,-1.6104,-1.6099,-1.6062,-1.6052,-1.6035,-1.6022,-1.5997,-1.598,-1.5958,-1.5941,-1.5919,-1.5915,-1.5916,-1.5924,-1.5934,-1.5928,-1.588,-1.5914,-1.5914,-1.5913,-1.5913,-1.5913,-1.624,-1.6235,-1.6208,-1.6191,-1.6173,-1.6155,-1.6147,-1.6124,-1.611,-1.6086,-1.6068,-1.6053,-1.6029,-1.5996,-1.5981,-1.5969,-1.5959,-1.596,-1.596,-1.5961,-1.5964,-1.5937,-1.5965,-1.5965,-1.5965,-1.5965,-1.5965,0,-1.6277,-1.6258,-1.6242,-1.6215,-1.6202,-1.6183,-1.616,-1.615,-1.6137,-1.6116,-1.61,-1.6081,-1.6063,-1.6036,-1.6016,-1.6012,-1.6001,-1.6008,-1.6007,-1.6004,-1.5975,-1.5975,-1.6017,-1.6017,-1.6017,-1.6017,-1.6017,-1.6017,-1.6294,-1.6284,-1.6267,-1.6247,-1.6229,-1.6212,-1.6201,-1.6185,-1.6168,-1.6147,-1.6133,-1.6114,-1.6091,-1.6069,-1.6053,-1.6045,-1.6039,-1.6049,-1.6038,-1.6011,-1.6006,-1.6001,-1.6002,-1.6048,-1.6048,-1.6068,-1.6068,-1.6068]},{"header":{"parameterUnit":"m.s-1","parameterCategory":1,"la1":30.2991,"la2":30.254,"lo1":-89.0895,"lo2":-89.0444,"dy":0.0017,"dx":0.0017,"nx":28,"ny":28,"refTime":"2025-11-17T03:00:00:Z","depth":0,"parameterNumber":3,"parameterNumberName":"V-component_of_WINDS"},"data":[0,0,0,0,0,0,0,0,0,0,0,0,0,0,0,0,0,0,0,0,0,0,0,0,0,0,0,0,0,0,0,0,0,0,0,0,0,0,0,0,0,0,0,0,0,0,0,0,0,0,0,0,0,0,0,0,0,0,1.8758,1.8757,0,1.8624,1.8622,1.8621,1.8585,1.8586,1.8587,1.8588,1.8447,1.8443,1.8438,0,0,0,0,0,0,0,0,0,0,0,0,0,1.8983,1.8979,1.8758,1.8757,1.8755,1.8624,1.8622,1.862,1.8585,1.8586,1.8587,1.8588,1.8449,1.8443,1.8438,0,0,0,0,0,0,0,0,0,0,0,0,0,1.8871,1.8978,1.8759,1.8722,1.8717,1.8624,1.8622,1.862,1.8585,1.8586,1.8587,1.8589,1.8451,1.8444,1.8437,1.8371,0,0,1.8417,1.8414,0,0,0,0,0,0,0,0,1.8877,1.8863,1.8729,1.8724,1.8719,1.8623,1.865,1.8536,1.8585,1.8635,1.8588,1.8589,1.8504,1.8493,1.8465,1.8364,1.8358,1.8416,1.8412,1.8409,1.8407,0,0,0,0,0,0,0,1.8885,1.8868,1.8705,1.8727,1.8721,1.8711,1.8697,1.8628,1.8564,1.8631,1.8628,1.8613,1.8502,1.8472,1.8462,1.8356,1.8416,1.841,1.8406,1.8403,1.8197,1.8195,0,0,0,0,0,0,1.89,1.8875,1.8709,1.8701,1.8803,1.8706,1.869,1.8652,1.8565,1.8553,1.8612,1.8611,1.8483,1.847,1.8457,1.8375,1.8409,1.8403,1.8399,1.8198,1.8196,1.8195,0,0,0,0,0,0,1.8904,1.8885,1.8715,1.8787,1.8765,1.8701,1.8659,1.8649,1.8619,1.8551,1.8539,1.8593,1.8483,1.8466,1.8393,1.8369,1.84,1.8394,1.82,1.8198,1.8196,1.821,0,0,0,0,0,0,1.8911,1.8887,1.8861,1.8787,1.8761,1.8654,1.8657,1.8645,1.8608,1.8606,1.853,1.8518,1.8483,1.8404,1.8387,1.8361,1.8388,1.8202,1.8199,1.8196,1.8211,1.8208,1.8206,0,0,0,0,0,1.8919,1.8869,1.886,1.884,1.8728,1.8652,1.8638,1.8599,1.8606,1.8579,1.8536,1.8521,1.8375,1.8396,1.8377,1.8349,1.8203,1.82,1.8196,1.8212,1.8209,1.8206,0,0,0,0,0,0,1.8941,1.8859,1.8848,1.8772,1.872,1.8647,1.8612,1.8596,1.8539,1.854,1.8493,1.8476,1.8407,1.837,1.8396,1.8281,1.8289,1.8282,1.8308,1.8304,1.8301,1.8311,1.8383,0,0,0,0,0,1.8937,1.8884,1.8815,1.8755,1.8729,1.8676,1.8641,1.8616,1.8559,1.8537,1.8488,1.8433,1.8375,1.8337,1.828,1.8206,1.8189,1.8177,1.8175,1.8173,1.8167,1.8127,1.8121,1.8184,1.8184,1.8184,0,0,1.8928,1.8877,1.8846,1.8758,1.8714,1.866,1.8657,1.8599,1.8558,1.8527,1.8456,1.8419,1.8354,1.8281,1.8247,1.8249,1.8146,1.8169,1.8168,1.8163,1.8123,1.8117,1.8112,1.8182,1.8182,1.8183,0,0,1.8885,1.884,1.8787,1.8744,1.8679,1.8643,1.8631,1.856,1.8535,1.8463,1.844,1.839,1.8291,1.8246,1.8211,1.8154,1.8138,1.8136,1.8123,1.8085,1.808,1.8075,1.8056,1.8049,1.8131,1.8131,1.8131,0,1.8882,1.88,1.8761,1.8705,1.8667,1.8639,1.8585,1.8545,1.8463,1.8438,1.8442,1.8318,1.8273,1.819,1.8177,1.8148,1.8133,1.8145,1.8084,1.8079,1.8074,1.8055,1.8048,1.8131,1.8131,1.8131,1.8131,0,1.88,1.8743,1.8708,1.8632,1.8591,1.8536,1.8489,1.8452,1.8431,1.8396,1.8324,1.8269,1.8201,1.8179,1.8157,1.8094,1.8097,1.8093,1.81,1.8069,1.805,1.8043,1.8132,1.8131,1.8131,1.8131,0,0,1.8764,1.867,1.8658,1.8624,1.8552,1.8507,1.8451,1.8386,1.8356,1.8301,1.8254,1.8172,1.8168,1.8128,1.8101,1.8068,1.8028,1.8067,1.8065,1.8063,1.7956,1.7961,1.7953,1.8018,1.8016,1.8015,1.7962,0,1.8712,1.8613,1.8578,1.8496,1.8444,1.8417,1.8369,1.8319,1.8286,1.8236,1.8198,1.8142,1.814,1.8116,1.8082,1.804,1.8006,1.8043,1.7973,1.7971,1.7991,1.7943,1.7947,1.79,1.7955,1.7953,1.7952,0,1.8638,1.8585,1.8498,1.8434,1.8411,1.8368,1.8307,1.8261,1.8204,1.8182,1.8139,1.8115,1.8056,1.8067,1.7986,1.8013,1.7982,1.7957,1.7955,1.7947,1.796,1.7934,1.7883,1.7877,1.794,1.7941,1.7942,0,1.8623,1.8529,1.8466,1.8438,1.8361,1.8332,1.8298,1.8243,1.8207,1.8154,1.813,1.807,1.8037,1.7991,1.7952,1.7963,1.7875,1.7882,1.7855,1.7856,1.7837,1.7839,1.7782,1.7817,1.7817,1.7818,1.7818,0,1.8568,1.8517,1.8458,1.8419,1.8361,1.8321,1.8265,1.8229,1.8181,1.8135,1.8108,1.8065,1.8016,1.7967,1.7936,1.7875,1.786,1.784,1.7833,1.7843,1.7846,1.7822,1.7825,1.7816,1.7816,1.7816,1.7817,0,1.8541,1.8499,1.8429,1.8363,1.8346,1.8306,1.8249,1.8211,1.8177,1.8119,1.8103,1.8049,1.799,1.7947,1.787,1.785,1.7785,1.7776,1.7804,1.78,1.7776,1.7779,1.7702,1.769,1.7733,1.7733,1.7733,0,1.8509,1.8469,1.84,1.8368,1.8335,1.8283,1.8247,1.8207,1.8171,1.8105,1.8074,1.8014,1.7964,1.7871,1.7825,1.7767,1.7758,1.7735,1.7749,1.7761,1.7759,1.7762,1.7758,1.7733,1.7732,1.7732,1.7732,0,1.8458,1.844,1.8389,1.8332,1.829,1.8243,1.8195,1.817,1.8122,1.8082,1.8023,1.7984,1.7907,1.7848,1.7786,1.7751,1.7734,1.7728,1.7719,1.7729,1.7747,1.7738,1.7799,1.773,1.773,1.773,1.7731,1.7731,1.8427,1.8391,1.8338,1.8283,1.8244,1.82,1.8162,1.8124,1.8074,1.8009,1.7988,1.7927,1.7874,1.7789,1.7754,1.7705,1.7706,1.7692,1.7689,1.7686,1.7687,1.7755,1.7694,1.7694,1.7694,1.7694,1.7694,0,1.8375,1.8341,1.8291,1.8226,1.8183,1.8172,1.8119,1.8084,1.8031,1.7983,1.7935,1.7867,1.7811,1.7761,1.7702,1.7673,1.7664,1.7659,1.7661,1.7654,1.769,1.7704,1.7668,1.7668,1.7668,1.7668,1.7668,1.7668,1.8343,1.8283,1.8259,1.8179,1.8144,1.8085,1.8056,1.8016,1.7978,1.7905,1.7858,1.7827,1.7778,1.7716,1.7664,1.7651,1.7631,1.7628,1.7613,1.7648,1.7651,1.7654,1.7667,1.7624,1.7624,1.7581,1.7581,1.7581]}]]